Dewpoint
31 30 27 26 28 28 28 30 28 23 22 27 28 32 31 30 32 30 30 33 34 33 35 38 39 40 42 41 41 42 45 50 53 55 59 60 59 58
28 27 28 27 27 28 30 30 31 29 27 27 28 29 30 26 29 30 30 34 32 32 34 36 37 38 40 39 39 40 42 47 48 52 56 60 59 58
28 28 27 27 27 27 29 29 30 29 27 27 29 29 28 28 28 29 30 29 28 31 33 35 36 37 39 39 39 40 40 43 46 49 52 57 59 58
26 27 26 23 27 27 27 27 27 28 27 26 27 27 28 29 28 29 27 26 28 30 33 34 34 36 37 37 37 38 39 40 41 45 48 52 59 58
24 24 24 24 25 26 25 25 26 23 27 26 26 27 28 28 28 29 28 29 27 33 31 32 34 35 35 36 36 36 37 38 40 42 46 49 57 58
24 25 24 24 24 25 24 25 23 24 24 25 25 25 26 27 28 28 28 29 29 27 31 34 34 35 34 34 35 38 37 38 40 42 42 45 50 56
24 23 24 26 26 27 24 25 24 25 25 25 25 25 25 25 26 27 27 28 29 29 32 32 31 31 32 33 34 36 37 39 43 45 44 43 47 54
22 22 23 24 25 26 26 27 26 26 26 26 26 26 26 26 27 27 27 27 26 30 29 29 31 30 31 31 35 35 36 40 42 43 44 43 46 51
22 22 20 17 22 21 23 24 24 25 25 25 25 25 25 26 26 27 28 28 27 29 28 27 29 28 30 28 33 35 37 40 41 41 42 45 46 50
21 21 20 20 21 22 22 21 21 22 22 21 22 23 24 25 25 25 26 27 27 28 28 26 27 27 29 30 33 35 38 36 38 39 40 42 46 48
19 20 21 20 23 24 23 24 23 23 24 27 27 27 28 29 28 28 29 27 24 24 28 28 27 28 28 28 30 36 32 33 35 35 38 42 43 46
19 19 21 21 23 25 24 25 24 24 24 24 23 25 26 27 28 28 28 26 26 26 28 28 28 29 29 32 32 32 32 33 33 33 34 39 40 44
19 19 20 23 24 24 24 24 25 24 25 24 24 25 26 26 27 28 28 28 26 26 28 29 31 29 28 27 29 30 30 30 30 31 35 35 39 41
23 21 21 23 24 25 25 27 27 27 29 31 29 27 26 27 27 28 29 29 30 28 29 30 29 29 29 27 26 29 29 29 29 33 32 36 37 38
23 23 24 24 25 25 25 25 25 25 26 26 25 25 26 26 26 28 29 30 30 30 29 30 30 29 29 27 25 26 26 27 29 30 32 32 33 35
23 24 24 24 25 25 26 25 24 25 25 24 23 24 25 26 26 27 27 28 28 27 30 31 30 29 28 28 27 26 27 26 29 29 30 30 32 35
24 25 24 24 24 23 22 21 21 21 21 22 23 23 23 24 25 27 27 26 26 26 27 28 28 29 29 29 27 27 27 28 28 28 29 29 30 33
23 23 24 22 20 19 18 18 19 19 20 21 22 23 23 23 23 25 26 26 25 25 26 27 28 29 28 28 30 27 26 27 28 28 29 27 27 31
22 23 21 19 17 17 18 19 19 20 21 21 22 22 22 22 22 23 24 25 25 25 25 26 26 24 23 21 25 30 27 27 28 28 27 27 27 29
21 21 19 18 18 18 18 19 21 22 22 21 22 22 23 23 23 23 23 22 22 23 24 26 25 25 25 22 21 25 31 28 27 27 27 29 29 32
18 19 19 18 18 19 19 21 21 21 21 22 22 23 23 23 23 23 23 22 22 22 22 24 26 28 26 25 23 24 26 31 30 28 29 29 28 27
20 20 19 19 19 20 20 21 21 21 21 22 22 22 23 23 22 22 22 22 22 22 22 24 26 27 24 24 22 23 23 26 29 31 31 29 25 24
19 19 19 20 20 20 20 20 20 20 21 21 21 22 22 21 22 22 23 23 23 23 23 22 23 26 25 25 24 23 24 24 25 25 27 31 32 31
Lifted_Index
19 19 20 20 21 21 21 21 19 16 16 17 19 21 22 22 22 22 22 22 22 22 22 21 21 20 20 20 19 17 13 9 6 4 3 2 2 2
19 20 20 20 21 21 21 21 20 19 18 19 20 21 22 22 22 22 22 22 22 22 22 21 21 20 20 20 20 18 15 12 8 6 4 3 2 2
20 20 20 21 21 21 22 22 22 21 21 20 21 22 22 23 23 23 23 23 22 22 22 22 22 21 21 21 20 20 18 15 11 7 5 3 3 3
19 19 20 20 21 21 22 22 22 22 22 22 22 22 23 23 23 23 23 23 23 23 22 22 22 21 21 21 21 20 19 17 13 9 6 4 3 3
18 19 19 20 20 21 21 22 22 22 23 23 22 22 22 23 23 23 23 23 23 23 23 22 22 22 22 21 21 21 20 19 16 12 8 5 4 4
17 18 18 19 19 20 21 21 21 22 22 22 22 22 22 22 22 22 23 23 22 22 22 22 22 22 22 21 21 21 21 20 18 14 10 6 5 4
16 16 17 18 19 19 19 20 20 20 20 20 21 21 20 20 21 21 22 22 22 22 22 22 22 22 22 22 22 21 21 20 19 16 13 8 6 5
15 16 17 17 18 18 18 19 19 19 19 19 19 19 19 19 19 19 20 20 20 21 21 21 22 22 22 22 22 22 21 20 19 18 16 11 7 6
15 16 16 17 17 17 18 18 18 18 18 18 18 18 18 18 18 18 18 18 19 19 20 20 20 21 22 22 22 22 21 20 19 19 17 14 9 7
15 15 15 16 16 16 16 17 17 17 17 17 17 17 17 18 18 18 18 18 18 18 18 18 19 19 20 21 22 21 21 20 20 19 18 15 10 7
14 14 14 14 15 15 15 16 16 16 16 16 16 16 16 16 16 16 17 17 17 17 17 18 18 18 19 19 20 20 21 21 21 20 19 16 12 9
13 13 14 14 14 14 15 15 15 15 15 15 15 15 15 15 14 14 15 15 15 15 16 16 17 17 17 17 18 19 21 21 22 21 20 18 14 11
12 13 13 14 14 14 14 14 14 14 14 14 14 13 13 13 13 13 13 14 14 14 14 14 16 17 17 17 18 19 20 21 21 21 21 19 16 13
12 13 13 14 14 14 14 14 14 13 13 13 13 12 12 12 13 13 13 13 13 13 12 13 14 15 16 17 18 18 19 20 21 21 21 20 17 15
12 13 13 13 13 13 13 13 13 13 12 12 12 12 12 12 13 13 13 13 13 12 12 12 12 13 15 16 17 18 19 19 20 21 21 21 19 17
12 12 12 13 13 13 13 13 13 12 12 12 13 13 13 13 12 12 12 12 12 12 12 12 12 12 13 15 16 17 18 19 19 20 20 20 19 18
12 12 12 12 13 13 13 13 13 13 13 13 13 13 13 13 13 12 12 12 12 12 12 12 12 12 12 13 14 16 17 18 19 19 19 19 19 19
12 12 12 12 13 13 13 13 13 13 13 13 13 13 13 13 13 12 12 12 12 11 11 11 11 11 12 12 13 14 16 17 19 19 19 19 19 19
11 11 12 12 12 12 13 13 12 12 13 13 13 13 13 13 13 12 12 12 11 11 11 11 11 11 11 11 11 12 14 16 18 19 19 18 19 19
11 11 11 12 12 12 13 12 12 12 13 13 13 13 13 13 13 12 12 12 11 11 11 10 10 11 11 10 11 11 12 15 17 18 18 18 19 19
10 11 11 12 12 12 13 13 12 12 13 13 13 13 13 13 13 12 12 12 11 11 10 10 10 10 10 10 10 10 11 13 15 17 18 18 18 18
10 10 11 12 12 12 13 13 13 13 13 13 13 13 13 13 13 12 12 12 11 11 10 10 10 10 10 10 10 10 11 12 14 16 18 18 18 18
10 10 11 12 12 13 13 13 13 13 13 13 13 13 13 13 13 12 12 11 11 11 10 10 10 9 10 10 10 10 11 12 14 15 17 18 19 19